STARLINK-4399, 53469

Orbit data source: Space-Track

STARLINK-4399, 53469 is a payload satellite owned by SpaceX/Seattle (US) in SSO that was launched on Fri, 12 Aug 2022 UTC via an FALCON 9 launch vehicle from the Air Force Western Test Range (AFWTR). Payload-class satellites include a variety of spacecraft equipped with specific instruments for various scientific and technological missions. These include communications satellites like Starlink; space stations such as the ISS; scientific satellites like the Hubble; Earth observation satellites from companies like Planet Labs, Umbra, and HawkEye 360; GPS; miniature CubeSats for education and research; and military/defense satellites.

Loading next visibility...
Identifier
53469, 2022-099E
Orbit
SSO
Country
Flag of USUS
Related business
Manufacturer
SpaceX/Seattle
Mission
Operational Commercial Communications
Bus & Motor
STARLINK, Unknown motor
Mass
300 kg wet, ~275 kg dry
Launch date (UTC)
2022-08-12 (3 years ago)
Launch vehicle
FALCON 9
Launch site
Air Force Western Test Range (AFWTR)
Object type
Payload
Rocket body
Debris
Shape & HBR
Box + 1 Pan, 10.1 m
Radar Cross Section
13.562 m², Large (>1 m²)

Expand to show TLE details & history
Last TLE update: 16 hours ago

TLE from 16 hours ago
0 STARLINK-4399
1 53469U 22099E   25346.87761385 -.00006779  00000-0 -46571-3 0  9991
2 53469  97.6020 105.6698 0000940 133.4208 226.7097 15.05679339182981
Epoch: 2025-12-12T21:03Z
TLE epoch observation values (Epoch: 2025-12-12T21:03:45.836Z)
Latitude
-0.00005°
Longitude
67.91589°
Altitude
552.933 km
Speed
7.585 km/s
True Right ascension
07h 02m 40s
True Declination
0° 00' 00"
Sunlit
Object was in full shadow at epoch
Visualization orbit readout
Latitude
Unknown
Longitude
Unknown
Altitude
Unknown
Speed
Unknown
Apparent Right ascension
Unknown
Apparent Declination
Unknown
Sunlit
N/A
Visualization observer readout
Local Sidereal Time
11:22:41
Azimuth
Unknown
Elevation
Unknown
Doppler factor
Unknown
Orbital elements
Apogee altitude
547.065 km
Perigee altitude
545.764 km
Semi-major axis
6,924.552 km
Eccentricity
0.00009
Inclination
97.602°
RAAN
105.6698°
Arg. of periapsis
133.4208°
True anomaly
226.70186°
Mean anomaly
226.7097°
Eccentric anomaly
226.70578°
Mean motion
3.76665 °/min
Orbital period
95.58 mins
BSTAR
-0.00046571
Loading maneuver chart data...
Computing Atmospheric mass density...
Loading historical data...
Loading historical data...
Loading historical data...
Loading historical data...
Loading historical data...
Loading historical data...
Loading historical data...

Documentation

Showing up to 5 results
|